Wind_Speed
18 18 17 16 17 13 9 8 7 7 7 6 6 6 6 6 6 6 6 6 6 7 8 7 7 7 7 7 7 7 8 8 8 8 8 8 9 9 9 9 9 9 10 9 9 9 8 8 8
17 17 17 19 16 10 8 8 7 7 7 7 6 6 7 7 7 6 6 6 6 7 8 8 6 6 8 8 7 8 8 8 7 8 8 7 8 8 8 8 8 9 9 9 9 9 9 8 8
17 16 20 18 12 9 9 8 8 7 7 7 7 6 7 7 7 7 6 6 7 7 8 8 7 6 7 7 7 6 6 6 6 6 7 7 7 7 7 8 8 9 9 9 9 9 8 8 8
17 18 20 15 10 9 9 9 8 8 8 8 7 7 7 7 7 7 7 7 7 8 8 9 8 7 7 7 7 6 5 6 6 5 5 6 6 6 5 6 7 8 8 9 9 9 8 8 8
17 20 18 12 10 9 9 9 8 8 8 8 8 8 8 8 8 7 7 8 8 8 8 8 8 8 7 6 5 5 5 5 5 4 4 4 5 5 5 5 6 8 8 8 8 8 8 8 7
20 19 15 11 9 9 10 9 8 8 9 9 8 8 8 8 8 9 9 8 8 8 8 8 8 8 7 6 6 5 5 5 5 4 4 4 4 4 4 5 7 9 10 9 8 8 8 7 6
19 16 13 10 9 9 10 10 9 9 9 9 9 9 9 9 9 9 9 9 9 9 9 7 7 7 7 7 5 5 4 4 4 3 3 4 4 4 5 6 7 9 9 9 8 8 7 6 5
15 13 11 8 8 9 9 9 9 10 10 10 10 9 10 10 9 9 9 9 9 9 8 8 8 7 7 6 5 5 4 3 3 3 3 3 4 4 5 7 8 8 7 8 8 7 6 5 4
12 11 9 6 7 8 8 9 9 10 11 11 11 11 11 11 10 10 10 10 9 9 9 8 8 7 7 7 6 5 4 3 2 3 3 3 4 5 5 6 7 7 7 6 6 6 6 5 4
8 9 7 6 5 6 7 8 9 10 10 11 11 11 11 11 11 11 11 10 10 9 9 8 8 7 7 7 7 6 5 3 2 2 3 3 5 5 5 5 5 5 5 5 6 6 5 5 4
4 6 6 5 5 6 7 8 9 9 9 10 11 11 11 11 11 12 11 11 11 10 9 9 9 9 8 7 7 6 5 4 3 2 2 2 3 4 4 4 4 4 4 4 5 6 6 5 4
4 5 5 5 5 5 6 7 8 9 9 10 10 10 9 10 11 12 12 12 11 11 10 9 9 9 9 8 7 6 5 4 4 2 2 2 3 3 3 3 4 3 4 4 4 5 5 5 5
2 3 3 5 4 4 5 6 7 7 8 9 9 10 10 10 10 11 11 11 11 11 10 9 9 9 9 8 7 6 5 4 4 3 1 1 2 3 2 2 3 3 3 4 4 4 5 5 5
1 0 2 3 3 3 5 6 6 7 8 8 8 9 10 10 10 10 11 11 11 11 10 10 9 9 9 8 7 6 5 4 3 3 1 1 1 2 2 3 3 4 4 3 4 4 4 5 5
4 2 1 3 4 3 3 3 5 5 6 7 8 9 9 10 11 11 11 11 11 11 10 10 10 9 9 8 7 6 5 4 4 3 2 1 0 1 2 2 3 3 3 3 4 4 4 5 5
3 4 5 4 5 5 4 3 4 4 5 6 7 7 8 9 10 11 11 11 11 10 10 10 10 10 9 9 8 6 5 4 4 4 3 2 1 1 2 2 2 3 3 4 4 4 4 5 5
4 7 8 8 8 7 5 4 7 7 5 6 6 7 7 8 9 10 10 10 10 10 10 10 10 10 10 10 8 7 5 4 5 4 4 3 2 2 2 3 3 3 4 4 4 5 5 5 5
7 8 9 9 9 8 8 5 6 9 8 6 6 6 7 7 8 9 9 10 10 10 10 10 10 10 10 10 9 8 6 5 5 5 5 4 3 3 4 4 4 4 5 5 5 5 6 6 6
11 12 11 10 10 9 9 9 9 10 10 8 7 6 6 7 8 8 9 9 9 9 9 10 10 9 10 9 8 8 7 6 6 5 5 4 4 4 4 4 4 4 5 5 5 6 6 6 7
14 13 12 11 12 12 11 12 12 11 11 11 10 8 6 8 8 8 8 8 9 9 9 9 9 9 10 9 8 7 7 6 6 6 5 6 5 5 5 6 5 6 6 6 7 7 7 7 7
15 15 14 15 14 12 11 13 14 13 13 13 13 11 9 9 9 9 8 8 8 8 9 9 9 9 10 9 8 8 7 7 7 7 7 7 7 6 6 7 7 7 8 8 8 9 9 9 10
16 16 17 17 16 14 13 15 15 15 15 16 15 14 12 11 11 9 9 8 8 8 9 10 9 9 9 10 9 8 8 8 8 8 8 8 9 8 8 8 8 8 8 9 9 9 10 10 11
19 19 19 19 19 17 16 16 16 17 17 17 17 16 14 13 11 10 10 10 9 9 9 10 10 10 10 10 10 10 10 10 9 9 9 10 10 10 10 9 9 9 9 10 10 10 11 12 12
21 21 20 20 18 20 17 16 18 19 18 17 16 16 15 15 13 11 11 11 11 10 10 10 10 11 11 11 11 12 12 12 11 11 11 11 11 11 11 11 11 10 11 11 12 12 13 13 13
22 22 20 19 19 19 16 17 19 18 19 19 17 16 15 14 15 14 12 11 12 12 11 11 11 12 12 12 13 13 13 14 13 13 12 12 12 12 12 11 12 12 12 13 13 14 14 14 15
23 23 22 22 20 19 17 18 18 19 21 21 19 16 16 16 16 16 15 13 12 13 13 13 13 13 14 14 14 14 14 15 15 14 14 14 14 13 13 13 13 14 14 14 14 14 15 15 16
25 24 24 24 23 21 20 20 20 20 21 21 20 17 19 18 18 17 16 15 14 14 14 15 15 15 15 15 16 15 16 16 16 16 15 15 15 14 14 14 15 15 15 15 16 16 16 16 16
25 25 23 24 25 25 22 21 20 22 22 21 21 20 19 20 19 18 17 16 16 16 16 16 17 17 16 16 16 16 16 16 16 16 16 16 16 15 16 16 16 16 16 16 16 16 16 16 17
25 26 26 26 25 24 22 22 22 23 23 23 22 22 20 20 20 20 19 19 19 19 19 19 19 18 18 17 17 17 17 18 17 17 17 17 17 17 17 17 17 17 17 17 16 16 16 17 17
25 26 26 26 26 26 25 24 22 24 25 24 23 24 23 23 22 22 21 21 21 20 20 20 20 20 20 20 19 19 19 19 19 19 19 19 18 18 18 18 19 19 19 18 17 17 18 18 18
Wind_Direction
77 78 77 69 59 56 54 58 65 70 71 68 68 70 71 66 64 67 59 55 48 48 57 69 82 85 96 105 115 127 136 139 139 139 145 149 151 150 151 149 144 141 140 140 138 132 128 129 128
76 77 73 64 61 51 47 51 61 65 65 64 63 64 64 64 63 63 58 58 57 56 60 65 79 82 88 100 113 125 127 135 137 140 145 155 156 153 152 149 147 146 146 145 142 135 132 131 132
80 74 66 59 50 44 46 46 52 58 61 61 58 61 65 62 58 54 57 60 60 59 61 64 72 76 83 90 102 123 129 134 135 138 144 150 157 155 152 152 149 148 145 143 142 141 137 132 130
77 68 65 57 43 40 47 43 46 53 57 57 56 58 63 63 59 53 53 61 59 59 65 69 74 78 78 95 107 112 126 137 138 138 143 147 149 151 149 153 151 152 145 141 142 139 138 133 131
74 67 64 53 43 43 45 44 46 48 51 52 55 54 57 60 60 53 49 56 62 61 61 67 75 73 74 91 103 106 114 124 135 136 133 138 149 148 150 152 159 158 150 145 146 145 142 137 135
70 63 60 47 41 42 45 46 43 45 44 48 52 55 56 58 58 54 56 60 63 61 61 67 67 67 70 83 95 100 110 110 123 129 131 138 145 151 151 152 153 160 156 150 147 153 153 146 137
70 65 57 47 39 39 43 42 44 49 48 49 51 54 55 58 57 56 56 60 61 65 64 61 62 63 66 70 83 88 99 105 116 123 133 150 147 144 148 156 156 157 158 159 155 153 151 148 142
70 69 59 42 39 39 41 40 45 51 53 50 52 57 57 58 55 54 55 56 58 62 60 61 61 63 65 65 69 75 84 101 116 124 141 150 149 146 148 151 157 158 161 166 165 163 162 155 151
70 68 58 39 38 40 42 42 46 51 52 49 50 55 57 56 54 52 51 48 53 55 56 59 57 56 54 58 57 62 67 81 103 121 133 147 151 148 144 148 156 164 166 172 176 175 177 178 172
44 67 58 36 34 46 42 42 47 47 49 52 51 53 56 54 51 49 47 48 52 50 50 51 49 48 50 52 51 51 59 68 94 123 124 136 149 150 150 148 158 167 176 184 185 188 191 199 199
42 53 48 38 36 52 42 36 43 46 46 49 52 53 54 52 51 47 46 49 50 47 46 42 40 40 42 43 41 41 45 53 70 89 123 141 150 150 155 155 159 168 178 187 193 198 200 206 217
50 55 39 34 32 45 43 36 36 36 35 39 40 43 45 47 50 48 48 46 44 44 42 41 37 34 36 39 37 37 37 47 49 54 95 147 157 158 156 167 167 179 187 192 194 203 211 215 222
42 31 32 29 30 36 36 31 34 24 24 29 33 36 40 42 43 42 41 40 40 41 39 36 34 29 27 31 29 32 34 36 38 43 53 149 170 178 180 185 194 199 199 205 213 220 222 227 226
185 295 359 353 357 18 41 24 19 15 18 22 30 34 36 35 33 35 33 33 34 34 33 32 30 25 25 26 24 26 25 26 29 24 31 116 165 180 193 205 216 225 228 225 217 228 240 242 243
217 241 290 314 325 338 28 11 355 1 4 11 19 27 29 30 29 29 29 27 28 28 28 27 25 24 25 26 24 21 20 20 11 9 17 44 286 238 239 230 234 241 244 238 236 242 247 255 255
249 274 282 291 290 296 325 351 322 337 346 354 4 16 19 24 23 23 24 23 24 24 22 20 19 19 19 18 20 23 20 16 11 5 356 352 329 281 267 260 253 258 252 249 249 258 258 262 264
237 267 279 290 288 286 303 323 317 327 337 343 352 8 9 11 13 15 18 20 20 20 19 17 15 16 15 14 16 16 15 12 8 355 343 340 330 312 293 284 285 282 265 261 255 257 261 265 270
231 252 256 270 279 280 283 282 298 306 309 321 328 343 353 357 3 5 10 15 16 16 15 14 9 9 12 13 14 14 13 11 4 360 350 337 333 324 309 300 305 295 282 274 269 268 268 269 273
225 234 237 251 263 257 269 278 277 286 296 305 309 318 334 341 350 352 357 5 9 9 9 6 5 5 6 7 8 12 9 3 2 355 345 338 329 320 308 294 295 295 290 284 279 286 284 280 281
235 235 238 247 258 248 247 261 272 280 289 293 298 306 316 325 332 337 345 351 360 359 359 359 -0 3 2 1 2 5 4 1 353 352 351 340 325 312 308 296 290 292 294 286 283 282 283 283 283
236 238 240 246 253 256 259 264 272 272 279 284 285 290 301 310 319 321 328 337 345 349 350 352 350 351 353 354 354 355 356 353 348 346 345 338 324 314 306 300 296 294 296 295 290 282 283 283 286
240 242 245 248 251 248 256 266 268 275 279 279 279 282 289 296 309 312 316 323 331 336 339 343 346 343 343 344 343 343 342 342 339 334 331 333 325 316 310 303 297 292 292 292 293 288 288 291 292
236 241 246 249 249 247 243 254 266 270 272 276 276 280 284 288 297 302 307 310 316 320 326 332 336 338 338 337 335 334 334 331 328 326 326 325 320 314 310 305 302 300 298 296 296 297 292 291 290
236 238 243 246 248 254 252 256 261 264 271 271 272 278 279 282 289 293 297 301 304 305 311 320 326 327 327 328 329 327 325 323 321 320 318 316 314 311 309 304 301 301 302 301 297 294 293 291 291
238 237 242 248 253 259 261 260 259 258 264 266 266 274 277 277 283 286 288 289 293 298 303 310 316 318 318 318 319 320 317 316 315 313 312 309 305 304 303 298 297 297 299 300 297 293 293 292 291
238 237 240 245 251 262 262 261 265 263 263 268 269 269 272 275 279 281 282 282 286 291 295 300 304 307 309 311 313 313 312 313 312 308 308 305 302 300 298 294 294 295 296 297 297 295 294 294 293
237 238 241 248 250 252 250 254 256 260 257 262 265 264 269 273 275 277 280 282 282 286 290 294 297 299 302 303 305 308 308 306 305 305 304 304 303 302 300 295 295 296 295 293 292 293 294 294 294
239 239 238 240 244 248 249 257 262 261 266 266 263 258 263 267 269 270 274 278 281 284 286 289 294 298 300 299 299 302 306 308 305 304 305 303 302 300 298 297 298 295 294 294 290 289 292 293 293
242 242 238 238 238 244 250 251 253 258 260 264 262 260 262 265 268 268 271 275 277 279 281 284 287 292 296 298 300 301 302 304 303 300 299 299 298 297 298 297 297 298 294 290 290 290 291 291 293
241 244 245 244 244 243 244 248 253 258 260 261 261 262 265 265 268 269 270 272 274 277 279 281 284 288 291 293 294 296 298 299 299 299 298 298 297 296 296 298 297 296 296 293 291 291 290 290 292
Height
5880 5879 5879 5879 5877 5879 5879 5879 5878 5877 5876 5876 5875 5875 5874 5874 5875 5876 5873 5871 5871 5870 5869 5869 5868 5868 5868 5869 5869 5870 5871 5872 5873 5873 5874 5875 5876 5877 5878 5879 5880 5881 5882 5883 5884 5885 5887 5888 5889
5883 5883 5882 5880 5881 5883 5882 5881 5880 5879 5879 5877 5877 5876 5876 5875 5875 5875 5873 5873 5873 5871 5871 5870 5870 5870 5870 5871 5871 5872 5872 5873 5874 5874 5875 5876 5877 5878 5879 5880 5881 5882 5883 5884 5885 5886 5888 5889 5890
5886 5885 5883 5884 5886 5885 5885 5883 5882 5881 5880 5879 5879 5878 5878 5877 5877 5876 5875 5875 5874 5873 5872 5872 5872 5872 5872 5872 5873 5873 5874 5874 5875 5876 5876 5877 5878 5879 5880 5881 5882 5883 5884 5886 5887 5888 5889 5890 5891
5888 5886 5886 5889 5889 5888 5887 5886 5884 5883 5882 5882 5882 5881 5879 5879 5878 5878 5877 5876 5875 5875 5874 5874 5874 5874 5874 5874 5874 5875 5875 5876 5876 5877 5878 5878 5879 5880 5880 5881 5882 5883 5885 5886 5888 5889 5890 5891 5892
5889 5889 5890 5893 5892 5891 5889 5888 5887 5886 5885 5884 5884 5882 5881 5881 5880 5879 5878 5877 5877 5877 5876 5876 5876 5876 5876 5876 5876 5876 5876 5877 5877 5878 5879 5880 5880 5881 5881 5881 5882 5884 5886 5887 5888 5890 5891 5892 5893
5890 5892 5895 5895 5895 5893 5892 5890 5889 5888 5887 5886 5885 5884 5884 5883 5882 5881 5880 5879 5879 5878 5878 5878 5878 5877 5877 5877 5877 5877 5877 5878 5878 5879 5880 5880 5881 5882 5882 5881 5881 5883 5886 5888 5889 5890 5892 5893 5894
5894 5895 5898 5899 5898 5896 5895 5893 5891 5890 5889 5888 5887 5886 5885 5884 5884 5883 5882 5882 5881 5880 5880 5879 5879 5879 5879 5878 5878 5878 5878 5879 5879 5880 5881 5881 5882 5882 5883 5883 5883 5885 5887 5890 5891 5891 5893 5894 5895
5897 5900 5901 5902 5900 5898 5897 5895 5894 5893 5892 5891 5890 5889 5887 5887 5886 5885 5884 5883 5883 5882 5882 5881 5881 5880 5880 5880 5879 5879 5879 5880 5880 5881 5881 5882 5882 5883 5884 5885 5886 5887 5889 5891 5892 5893 5894 5895 5896
5902 5904 5904 5904 5902 5901 5899 5898 5897 5895 5894 5893 5892 5891 5890 5889 5888 5887 5886 5885 5885 5884 5883 5883 5882 5882 5881 5881 5881 5880 5880 5881 5881 5881 5882 5882 5883 5884 5885 5886 5887 5889 5890 5891 5892 5893 5894 5895 5896
5905 5906 5906 5906 5904 5903 5902 5900 5899 5898 5897 5895 5894 5893 5892 5891 5890 5889 5888 5887 5886 5886 5885 5885 5884 5883 5883 5882 5882 5882 5882 5882 5882 5882 5882 5883 5884 5885 5886 5887 5889 5890 5891 5892 5893 5894 5895 5896 5896
5909 5908 5908 5907 5905 5904 5904 5902 5901 5900 5899 5898 5897 5896 5895 5894 5893 5892 5891 5889 5888 5888 5887 5886 5886 5885 5884 5884 5883 5883 5883 5883 5883 5883 5883 5884 5885 5886 5887 5888 5889 5890 5891 5892 5893 5894 5895 5896 5897
5911 5910 5910 5909 5907 5906 5906 5905 5904 5902 5901 5900 5899 5898 5897 5896 5895 5894 5893 5892 5891 5890 5889 5889 5887 5887 5886 5885 5885 5884 5884 5884 5884 5883 5884 5884 5885 5886 5888 5889 5890 5891 5892 5892 5893 5894 5895 5896 5897
5912 5911 5911 5910 5909 5908 5908 5907 5906 5904 5903 5902 5901 5900 5899 5898 5897 5896 5895 5894 5893 5892 5891 5890 5889 5888 5887 5886 5886 5885 5885 5885 5885 5884 5884 5885 5886 5887 5888 5889 5890 5891 5892 5893 5893 5894 5894 5895 5896
5912 5912 5912 5912 5911 5910 5909 5908 5907 5906 5905 5904 5903 5902 5901 5900 5899 5898 5897 5896 5895 5894 5893 5892 5891 5890 5889 5888 5887 5886 5886 5885 5885 5885 5886 5886 5887 5887 5888 5889 5890 5891 5892 5892 5893 5894 5894 5895 5896
5911 5911 5912 5912 5912 5911 5911 5910 5909 5907 5906 5905 5904 5903 5902 5902 5901 5900 5899 5898 5896 5895 5894 5894 5892 5891 5890 5889 5888 5887 5887 5886 5887 5886 5887 5887 5887 5888 5888 5889 5890 5891 5891 5892 5893 5894 5894 5895 5895
5910 5911 5911 5912 5912 5912 5912 5911 5909 5907 5907 5907 5906 5905 5903 5903 5902 5901 5900 5899 5898 5897 5896 5895 5894 5893 5891 5890 5889 5888 5888 5888 5887 5887 5887 5888 5888 5888 5889 5889 5890 5890 5891 5892 5892 5893 5894 5894 5894
5911 5912 5912 5913 5912 5912 5912 5911 5910 5908 5908 5908 5907 5906 5905 5904 5903 5902 5901 5900 5899 5898 5897 5896 5895 5894 5893 5891 5890 5890 5889 5889 5888 5888 5888 5888 5888 5889 5889 5890 5890 5890 5891 5891 5892 5892 5893 5893 5893
5911 5912 5913 5913 5913 5913 5912 5911 5911 5909 5909 5908 5908 5907 5906 5905 5904 5903 5902 5901 5900 5899 5898 5897 5896 5895 5894 5893 5892 5891 5890 5890 5890 5889 5889 5889 5889 5889 5889 5890 5890 5890 5890 5890 5891 5891 5892 5892 5892
5910 5911 5911 5913 5912 5912 5912 5911 5911 5910 5909 5908 5908 5907 5906 5905 5905 5904 5903 5902 5901 5900 5899 5898 5897 5896 5894 5894 5893 5892 5891 5891 5891 5890 5890 5889 5889 5889 5889 5889 5889 5889 5889 5889 5889 5890 5890 5890 5891
5907 5909 5911 5911 5911 5910 5911 5911 5910 5909 5909 5908 5907 5906 5906 5905 5905 5904 5903 5902 5901 5900 5899 5898 5897 5896 5895 5894 5893 5893 5892 5891 5891 5891 5890 5890 5889 5889 5889 5889 5889 5889 5888 5888 5888 5889 5889 5889 5889
5904 5906 5908 5909 5908 5908 5909 5909 5908 5908 5908 5907 5906 5905 5905 5905 5904 5903 5903 5902 5901 5901 5900 5899 5898 5897 5896 5895 5894 5893 5893 5892 5892 5891 5890 5889 5889 5888 5888 5888 5888 5887 5887 5887 5887 5887 5887 5887 5887
5902 5904 5904 5905 5906 5907 5908 5908 5907 5906 5906 5905 5904 5903 5903 5903 5903 5902 5901 5901 5901 5900 5899 5898 5897 5897 5896 5895 5894 5894 5893 5892 5892 5891 5890 5889 5888 5888 5887 5886 5886 5886 5886 5886 5885 5885 5885 5885 5885
5898 5900 5900 5901 5902 5902 5903 5905 5905 5904 5903 5903 5902 5901 5901 5901 5901 5900 5900 5900 5899 5899 5899 5898 5897 5896 5895 5895 5894 5893 5892 5892 5891 5890 5889 5888 5887 5887 5886 5886 5885 5885 5884 5884 5884 5884 5884 5883 5883
5893 5895 5896 5896 5898 5898 5900 5902 5902 5900 5900 5900 5899 5898 5898 5898 5897 5899 5899 5898 5898 5898 5897 5897 5896 5895 5895 5894 5893 5892 5891 5890 5890 5889 5888 5886 5886 5885 5885 5884 5883 5883 5882 5882 5882 5881 5881 5881 5881
5889 5891 5892 5892 5894 5895 5897 5898 5898 5897 5897 5896 5895 5895 5895 5895 5895 5896 5896 5896 5896 5896 5895 5895 5895 5894 5893 5892 5891 5890 5889 5888 5888 5887 5886 5885 5884 5883 5882 5881 5881 5880 5880 5880 5879 5878 5878 5878 5877
5883 5886 5888 5890 5892 5893 5894 5894 5895 5894 5893 5893 5893 5892 5892 5893 5893 5893 5894 5894 5893 5893 5893 5893 5892 5892 5891 5890 5889 5888 5887 5886 5885 5884 5883 5882 5881 5881 5880 5879 5877 5877 5877 5876 5876 5875 5875 5874 5874
5878 5880 5883 5885 5886 5888 5889 5890 5890 5889 5889 5889 5889 5889 5889 5890 5890 5890 5890 5890 5890 5890 5890 5890 5889 5889 5888 5887 5886 5885 5884 5883 5882 5881 5881 5880 5879 5878 5877 5876 5875 5874 5873 5873 5872 5872 5871 5870 5870
5872 5875 5878 5880 5881 5882 5885 5886 5886 5885 5884 5884 5884 5884 5885 5886 5886 5886 5886 5886 5886 5887 5886 5886 5886 5885 5884 5883 5882 5882 5881 5879 5878 5878 5877 5877 5876 5875 5874 5873 5872 5871 5869 5869 5868 5867 5867 5866 5866
5866 5869 5870 5873 5875 5878 5880 5883 5881 5880 5878 5879 5879 5879 5880 5881 5881 5881 5882 5882 5882 5882 5882 5882 5882 5881 5881 5880 5879 5878 5877 5876 5875 5874 5873 5873 5872 5871 5870 5869 5868 5866 5865 5864 5863 5863 5863 5862 5861
5861 5863 5865 5867 5869 5870 5873 5876 5875 5874 5874 5874 5874 5874 5875 5876 5876 5875 5876 5877 5877 5878 5878 5878 5877 5877 5877 5876 5875 5874 5873 5872 5871 5870 5869 5868 5868 5867 5866 5865 5864 5862 5861 5860 5859 5859 5858 5857 5856